This demonstration page uses our WeatherBlox Daily Observations layout. Learn more.

Left ArrowRight Arrow

39.51506, -84.39828

Hourly Observations for May 28, 2016

Temp ( °F °C ) Dew Point ( °F °C ) Humidity (%) Winds ( mph kmh ) Pressure ( in mb ) Visibility ( mi km ) Precip ( " mm )
12:15 am 00:15 Clear 69 20.8 63 17 79 79 N N/A 30 1016 7 11.26538 N/A
12:35 am 00:35 Clear 69 20.8 63 17 79 79 N N/A 30 1016 10 16.0934 N/A
12:55 am 00:55 Clear 69 20.8 63 17 79 79 N N/A 30 1016 10 16.0934 N/A
1:15 am 01:15 Clear 69 20.8 63 17.1 79 79 N N/A 30 1016 10 16.0934 N/A
1:35 am 01:35 Clear 69 20.8 63 17 79 79 N N/A 30 1016 7 11.26538 N/A
1:55 am 01:55 Clear 69 20.8 63 17.3 80 80 N N/A 30 1016 10 16.0934 N/A
2:15 am 02:15 Clear 69 20.8 64 17.5 82 82 N N/A 30 1016 7 11.26538 N/A
2:35 am 02:35 Clear 68 20.2 62 16.8 81 81 N N/A 30 1016 10 16.0934 N/A
2:55 am 02:55 Clear 69 20.6 63 17.2 81 81 N N/A 30 1016 10 16.0934 N/A
3:15 am 03:15 Clear 67 19.5 61 16.2 81 81 N N/A 30 1016 7 11.26538 N/A
3:35 am 03:35 Clear 67 19.5 61 16.2 81 81 N N/A 30 1016 7 11.26538 N/A
3:55 am 03:55 Clear 69 20.8 64 17.5 82 82 N N/A 30 1016 10 16.0934 N/A
4:15 am 04:15 Clear 67 19.7 62 16.5 82 82 SW 3 6 30 1016 7 11.26538 N/A
4:35 am 04:35 Clear 69 20.6 64 17.5 83 83 N N/A 30 1016 10 16.0934 N/A
4:55 am 04:55 Clear 69 20.8 63 17.2 80 80 N N/A 30 1016 10 16.0934 N/A
5:15 am 05:15 Clear 69 20.8 63 17.2 80 80 N N/A 30 1016 10 16.0934 N/A
5:35 am 05:35 Clear 69 20.8 63 17.1 79 79 N N/A 30 1016 10 16.0934 N/A
5:55 am 05:55 Clear 69 20.8 62 16.9 78 78 SSE 5 7 30.03 1017 10 16.0934 N/A
6:15 am 06:15 Sunny 71 21.4 62 16.8 75 75 S 5 7 30.03 1017 10 16.0934 N/A
6:35 am 06:35 Sunny 70 21 62 16.7 77 77 S 5 7 30.03 1017 10 16.0934 N/A
6:55 am 06:55 Sunny 70 21.2 62 16.8 76 76 SSW 5 7 30.03 1017 10 16.0934 N/A
7:15 am 07:15 Sunny 71 21.6 64 17.5 78 78 S 5 7 30.03 1017 10 16.0934 N/A
7:35 am 07:35 Sunny 74 23.6 65 18.3 72 72 S 7 11 30.03 1017 10 16.0934 N/A
7:55 am 07:55 Mostly Cloudy 74 23.6 65 18.1 71 71 SSE 7 11 30.06 1018 10 16.0934 N/A
8:15 am 08:15 Cloudy 74 23.6 65 18.1 71 71 S 7 11 30.06 1018 10 16.0934 N/A
8:35 am 08:35 Mostly Cloudy 74 23.6 63 17.4 68 68 SSE 7 11 30.06 1018 10 16.0934 N/A
8:55 am 08:55 Partly Cloudy 77 25.1 65 18.1 65 65 S 8 13 30.06 1018 10 16.0934 N/A
9:15 am 09:15 Mostly Cloudy 75 23.7 62 16.8 65 65 S 8 13 30.06 1018 10 16.0934 N/A
9:35 am 09:35 Cloudy 76 24.2 64 17.6 67 67 SSW 7 11 30.09 1019 10 16.0934 N/A
9:55 am 09:55 Cloudy 77 25.1 64 18 65 65 S 7 11 30.09 1019 10 16.0934 N/A
10:15 am 10:15 Cloudy 77 25.1 64 17.5 63 63 S 8 13 30.09 1019 10 16.0934 N/A
10:35 am 10:35 Cloudy 77 25.1 64 17.5 63 63 S 7 11 30.09 1019 10 16.0934 N/A
10:55 am 10:55 Cloudy 77 25.1 63 17 61 61 S 8 13 30.09 1019 10 16.0934 N/A
11:15 am 11:15 Mostly Cloudy 80 26.5 64 17.5 58 58 S 7 11 30.09 1019 10 16.0934 N/A
11:35 am 11:35 Partly Cloudy 80 26.5 64 18 60 60 S 6 9 30.09 1019 10 16.0934 N/A
11:55 am 11:55 Cloudy 80 26.5 64 17.8 59 59 SSE 7 11 30.09 1019 10 16.0934 N/A
12:15 pm 12:15 Mostly Cloudy 80 26.5 63 17.3 57 57 SSE 7 11 30.09 1019 10 16.0934 N/A
12:35 pm 12:35 Mostly Cloudy 81 27.1 63 17.4 55 55 S 10 17 30.09 1019 10 16.0934 N/A
12:55 pm 12:55 Cloudy with Rain 78 25.8 64 17.8 61 61 S 10 17 30.09 1019 7 11.26538 N/A
1:15 pm 13:15 Mostly Cloudy with Light Rain 74 23.6 67 19.2 76 76 SW 7 11 30.09 1019 10 16.0934 N/A
1:35 pm 13:35 Partly Cloudy 77 25.1 68 19.9 73 73 N N/A 30.09 1019 10 16.0934 N/A
1:55 pm 13:55 Partly Cloudy 78 25.4 66 18.9 67 67 S 6 9 30.09 1019 10 16.0934 N/A
2:15 pm 14:15 Partly Cloudy 80 26.5 64 18 60 60 S 9 15 30.06 1018 10 16.0934 N/A
2:35 pm 14:35 Partly Cloudy 81 27.1 64 17.8 57 57 S 9 15 30.06 1018 10 16.0934 N/A
2:55 pm 14:55 Partly Cloudy 81 27.2 65 18.2 58 58 SW 6 9 30.06 1018 10 16.0934 N/A
3:15 pm 15:15 Sunny 82 28 64 18 55 55 S 7 11 30.06 1018 10 16.0934 N/A
3:35 pm 15:35 Sunny 83 28.2 64 17.7 53 53 SSW 6 9 30.06 1018 10 16.0934 N/A
3:55 pm 15:55 Partly Cloudy with Light Rain 81 27.2 64 17.6 56 56 SSW 5 7 30.06 1018 10 16.0934 N/A
4:15 pm 16:15 Partly Cloudy 81 27.2 65 18.5 59 59 W 3 6 30.03 1017 10 16.0934 N/A
4:35 pm 16:35 Sunny 83 28.1 65 18.1 55 55 SW 3 6 30.03 1017 10 16.0934 N/A
4:55 pm 16:55 Sunny 83 28.3 62 16.8 50 50 S 8 13 30.03 1017 10 16.0934 N/A
5:15 pm 17:15 Partly Cloudy 85 29.2 60 15.5 43 43 SSW 9 15 30 1016 10 16.0934 N/A
5:35 pm 17:35 Partly Cloudy 83 28.2 60 15.8 47 47 SSW 7 11 30.03 1017 10 16.0934 N/A
5:55 pm 17:55 Partly Cloudy 83 28.3 60 15.4 45 45 SSW 9 15 30.03 1017 10 16.0934 N/A
6:15 pm 18:15 Sunny 84 28.9 59 14.8 42 42 SSW 10 17 30 1016 10 16.0934 N/A
6:35 pm 18:35 Sunny 82 28 58 14.6 44 44 SW 12 19 30.03 1017 10 16.0934 N/A
6:55 pm 18:55 Sunny 81 27.2 60 15.8 50 50 SSW 7 11 30.03 1017 10 16.0934 N/A
7:15 pm 19:15 Sunny 80 26.5 60 15.4 51 51 SSW 9 15 30.06 1018 10 16.0934 N/A
7:35 pm 19:35 Sunny 81 27.2 61 16 50 50 SSW 7 11 30.06 1018 10 16.0934 N/A
7:55 pm 19:55 Sunny 80 26.7 61 16.2 53 53 SSW 7 11 30.06 1018 10 16.0934 N/A
8:15 pm 20:15 Sunny 80 26.5 60 15.4 51 51 SSW 8 13 30.06 1018 10 16.0934 N/A
8:35 pm 20:35 Sunny 79 26.3 60 15.4 51 51 SSW 7 11 30.06 1018 10 16.0934 N/A
8:55 pm 20:55 Sunny 77 25.1 59 14.8 53 53 SSW 8 13 30.06 1018 10 16.0934 N/A
9:15 pm 21:15 Clear 74 23.6 61 16.2 63 63 SW 5 7 30.06 1018 10 16.0934 N/A
9:35 pm 21:35 Clear 74 23.6 60 15.7 61 61 S 3 6 30.06 1018 10 16.0934 N/A
9:55 pm 21:55 Clear 73 22.8 64 17.8 74 74 N N/A 30.06 1018 10 16.0934 N/A
10:15 pm 22:15 Clear 69 20.8 63 17.1 79 79 N N/A 30.06 1018 10 16.0934 N/A
10:35 pm 22:35 Clear 69 20.8 63 17.4 81 81 N N/A 30.06 1018 10 16.0934 N/A
10:55 pm 22:55 Clear 69 20.8 64 17.5 82 82 N N/A 30.06 1018 10 16.0934 N/A
11:15 pm 23:15 Clear 69 20.8 64 17.5 82 82 N N/A 30.06 1018 10 16.0934 N/A
11:35 pm 23:35 Clear 69 20.8 64 17.5 82 82 N N/A 30.06 1018 7 11.26538 N/A
11:55 pm 23:55 Clear 69 20.8 64 17.5 82 82 N N/A 30.06 1018 10 16.0934 N/A

Powered by AerisWeather